Weather History for Hot Springs, VA

Change the Weather History Date:

Sunday, January 1, 2006

  Actual Average Record
Temperature  
Mean Temperature 37 °F -  
Max Temperature 42 °F 34 °F 53 °F (2007)
Min Temperature 32 °F 21 °F 6 °F (2002)
Degree Days  
Heating Degree Days 28    
Moisture  
Dew Point 26 °F    
Average Humidity 67    
Maximum Humidity 80    
Minimum Humidity 34    
Precipitation  
Precipitation 0.00 in - - ()
Sea Level Pressure  
Sea Level Pressure 29.99 in    
Wind  
Wind Speed 15 mph (West)    
Max Wind Speed 23 mph    
Max Gust Speed 31 mph    
Visibility 10 miles    
Events      
Averages and records for this station are not official NWS values.
T = Trace of Precipitation, MM = Missing Value Source: NWS Daily Summary

Daily Weather History Graph

Daily Weather History Graph

Search for Another Location

Airport:

Trip Planner

Search our weather history database for the weather conditions in past years. The results will help you decide how hot, cold, wet, or windy it might be!

Date:

Astronomy

Jan. 01, 2006 Rise Set
Actual Time 7:35 AM EST 5:10 PM EST
Civil Twilight 7:05 AM EST 5:40 PM EST
Nautical Twilight 6:33 AM EST 6:13 PM EST
Astronomical Twilight 6:01 AM EST 6:44 PM EST
Moon 9:17 AM EST (1/1) 6:59 PM EST (1/1)
Length of Visible Light 10h 34m
Length of Day
9h 35m
Waxing Crescent, 4% of the Moon is Illuminated
Jan 1
Waxing Crescent
Jan 6
First Quarter
Jan 14
Full
Jan 22
Last Quarter
Jan 29
New

Hourly Weather History & Observations

Time (EST) Temp. Windchill Dew Point Humidity Pressure Visibility Wind Dir Wind Speed Gust Speed Precip Events Conditions
12:00 AM 35.6 °F 25.9 °F 26.6 °F 70% 29.83 in 10.0 mi West 16.1 mph 25.3 mph N/A   Overcast
12:20 AM 35.6 °F 24.8 °F 26.6 °F 70% 29.83 in 10.0 mi West 19.6 mph 28.8 mph N/A   Overcast
12:40 AM 35.6 °F 25.2 °F 26.6 °F 70% 29.83 in 10.0 mi West 18.4 mph 26.5 mph N/A   Overcast
1:00 AM 35.6 °F 25.5 °F 26.6 °F 70% 29.84 in 10.0 mi West 17.3 mph 23.0 mph N/A   Overcast
1:20 AM 33.8 °F 22.8 °F 26.6 °F 75% 29.85 in 10.0 mi West 18.4 mph 24.2 mph N/A   Overcast
2:00 AM 33.8 °F 22.8 °F 26.6 °F 75% 29.87 in 10.0 mi WNW 18.4 mph 24.2 mph N/A   Overcast
2:20 AM 33.8 °F 22.8 °F 26.6 °F 75% 29.88 in 10.0 mi West 18.4 mph 21.9 mph N/A   Overcast
2:40 AM 33.8 °F 23.2 °F 26.6 °F 75% 29.87 in 10.0 mi West 17.3 mph 23.0 mph N/A   Overcast
3:00 AM 33.8 °F 23.2 °F 26.6 °F 75% 29.87 in 10.0 mi West 17.3 mph 26.5 mph N/A   Mostly Cloudy
3:20 AM 33.8 °F 22.8 °F 26.6 °F 75% 29.88 in 10.0 mi West 18.4 mph 26.5 mph N/A   Scattered Clouds
3:40 AM 33.8 °F 22.5 °F 26.6 °F 75% 29.88 in 10.0 mi West 19.6 mph 26.5 mph N/A   Scattered Clouds
4:00 AM 33.8 °F 23.2 °F 26.6 °F 75% 29.87 in 10.0 mi West 17.3 mph 24.2 mph N/A   Scattered Clouds
4:20 AM 33.8 °F 22.5 °F 26.6 °F 75% 29.88 in 10.0 mi West 19.6 mph - N/A   Scattered Clouds
4:40 AM 33.8 °F 22.8 °F 26.6 °F 75% 29.88 in 10.0 mi West 18.4 mph 24.2 mph N/A   Scattered Clouds
5:00 AM 33.8 °F 22.2 °F 26.6 °F 75% 29.90 in 10.0 mi West 20.7 mph 27.6 mph N/A   Scattered Clouds
5:20 AM 33.8 °F 22.5 °F 26.6 °F 75% 29.90 in 10.0 mi West 19.6 mph 26.5 mph N/A   Mostly Cloudy
5:40 AM 33.8 °F 21.6 °F 26.6 °F 75% 29.91 in 10.0 mi West 23.0 mph 31.1 mph N/A   Mostly Cloudy
6:00 AM 32.0 °F 19.8 °F 26.6 °F 80% 29.91 in 10.0 mi West 20.7 mph 28.8 mph N/A   Mostly Cloudy
6:20 AM 32.0 °F 20.1 °F 26.6 °F 80% 29.92 in 10.0 mi West 19.6 mph 29.9 mph N/A   Mostly Cloudy
6:40 AM 32.0 °F 19.8 °F 26.6 °F 80% 29.93 in 10.0 mi West 20.7 mph - N/A   Mostly Cloudy
7:20 AM 32.0 °F 20.5 °F 26.6 °F 80% 29.95 in 10.0 mi West 18.4 mph 25.3 mph N/A   Clear
7:40 AM 32.0 °F 20.5 °F 26.6 °F 80% 29.95 in 10.0 mi West 18.4 mph - N/A   Clear
8:00 AM 32.0 °F 20.8 °F 26.6 °F 80% 29.95 in 10.0 mi WNW 17.3 mph 24.2 mph N/A   Clear
8:20 AM 32.0 °F 20.8 °F 26.6 °F 80% 29.96 in 10.0 mi West 17.3 mph - N/A   Clear
8:40 AM 32.0 °F 20.8 °F 26.6 °F 80% 29.98 in 10.0 mi West 17.3 mph - N/A   Clear
9:00 AM 33.8 °F 23.9 °F 26.6 °F 75% 29.99 in 10.0 mi West 15.0 mph 21.9 mph N/A   Clear
9:20 AM 33.8 °F 25.3 °F 26.6 °F 75% 30.00 in 10.0 mi WNW 11.5 mph - N/A   Clear
9:40 AM 33.8 °F 24.8 °F 26.6 °F 75% 30.00 in 10.0 mi West 12.7 mph - N/A   Clear
10:00 AM 33.8 °F 25.8 °F 24.8 °F 70% 30.02 in 10.0 mi West 10.4 mph - N/A   Clear
10:20 AM 33.8 °F 26.4 °F 24.8 °F 70% 30.01 in 10.0 mi WNW 9.2 mph - N/A   Clear
10:40 AM 33.8 °F 27.0 °F 24.8 °F 70% 30.02 in 10.0 mi WNW 8.1 mph - N/A   Clear
11:00 AM 35.6 °F 29.2 °F 26.6 °F 70% 30.03 in 10.0 mi West 8.1 mph - N/A   Clear
11:20 AM 35.6 °F 27.5 °F 26.6 °F 70% 30.04 in 10.0 mi West 11.5 mph - N/A   Clear
12:00 PM 35.6 °F 26.2 °F 26.6 °F 70% 30.04 in - West 15.0 mph - N/A   Clear
12:20 PM 35.6 °F 27.5 °F 26.6 °F 70% 30.03 in 10.0 mi West 11.5 mph - N/A   Clear
1:00 PM 37.4 °F 30.3 °F 26.6 °F 65% 30.04 in 10.0 mi West 10.4 mph - N/A   Clear
1:20 PM 37.4 °F 29.8 °F 26.6 °F 65% 30.03 in 10.0 mi West 11.5 mph - N/A   Clear
1:40 PM 37.4 °F 31.4 °F 26.6 °F 65% 30.03 in 10.0 mi West 8.1 mph - N/A   Clear
2:00 PM 39.2 °F 32.0 °F 26.6 °F 61% 30.04 in - WSW 11.5 mph - N/A   Clear
2:20 PM 39.2 °F 33.0 °F 26.6 °F 61% 30.04 in - West 9.2 mph - N/A   Clear
2:40 PM 37.4 °F 30.3 °F 26.6 °F 65% 30.05 in 10.0 mi West 10.4 mph - N/A   Clear
3:00 PM 39.2 °F 31.2 °F 26.6 °F 61% 30.05 in 10.0 mi West 13.8 mph - N/A   Clear
3:20 PM 39.2 °F 32.0 °F 26.6 °F 61% 30.05 in 10.0 mi West 11.5 mph - N/A   Clear
3:40 PM 41.0 °F 35.2 °F 26.6 °F 57% 30.06 in 10.0 mi West 9.2 mph - N/A   Clear
4:00 PM 41.0 °F 36.4 °F 26.6 °F 57% 30.07 in - West 6.9 mph - N/A   Clear
4:20 PM 39.2 °F 35.0 °F 26.6 °F 61% 30.07 in - West 5.8 mph - N/A   Clear
4:40 PM 39.2 °F 37.0 °F 24.8 °F 56% 30.07 in 10.0 mi West 3.5 mph - N/A   Clear
5:00 PM 37.4 °F - 24.8 °F 60% 30.07 in 10.0 mi Calm Calm - N/A   Clear
5:20 PM 37.4 °F 34.9 °F 24.8 °F 60% 30.07 in 10.0 mi SSW 3.5 mph - N/A   Clear
5:40 PM 35.6 °F 30.7 °F 24.8 °F 65% 30.08 in 10.0 mi West 5.8 mph - N/A   Clear
6:00 PM 37.4 °F 34.9 °F 24.8 °F 60% 30.08 in 10.0 mi SSW 3.5 mph - N/A   Clear
6:41 PM 39.2 °F 34.2 °F 21.2 °F 49% 30.08 in 10.0 mi SSW 6.9 mph - N/A   Clear
7:00 PM 39.2 °F 34.2 °F 21.2 °F 49% 30.09 in - SSW 6.9 mph - N/A   Clear
7:20 PM 39.2 °F 35.0 °F 23.0 °F 52% 30.10 in - South 5.8 mph - N/A   Clear
8:00 PM 42.8 °F 38.6 °F 15.8 °F 34% 30.10 in 10.0 mi South 6.9 mph - N/A   Clear
8:20 PM 39.2 °F 33.6 °F 21.2 °F 49% 30.10 in 10.0 mi South 8.1 mph - N/A   Clear
8:40 PM 37.4 °F 30.3 °F 21.2 °F 52% 30.10 in 10.0 mi South 10.4 mph - N/A   Clear
9:00 PM 39.2 °F 31.2 °F 24.8 °F 56% 30.10 in 10.0 mi South 13.8 mph - N/A   Clear
9:20 PM 39.2 °F 30.8 °F 23.0 °F 52% 30.10 in 10.0 mi South 15.0 mph - N/A   Clear
9:40 PM 39.2 °F 32.0 °F 23.0 °F 52% 30.10 in 10.0 mi South 11.5 mph - N/A   Clear
10:00 PM 39.2 °F 31.6 °F 23.0 °F 52% 30.10 in 10.0 mi South 12.7 mph 19.6 mph N/A   Clear
10:20 PM 39.2 °F 31.2 °F 24.8 °F 56% 30.10 in 10.0 mi South 13.8 mph - N/A   Clear
11:00 PM 37.4 °F 28.5 °F 24.8 °F 60% 30.11 in - South 15.0 mph 20.7 mph N/A   Clear
11:20 PM 37.4 °F 28.9 °F 24.8 °F 60% 30.11 in 10.0 mi South 13.8 mph 21.9 mph N/A   Clear